Flag for France Weather past 2 weeks in Bordeaux, France

Now
73 °F

Clear.


Feels Like: 77 °F
Forecast: 56 / 83 °F
Wind: 8 mph from North

Location: Bordeaux / Merignac

Current Time: Sep 1, 2014 at 8:54:22 PM

Latest Report: Sep 1, 2014 at 8:30 PM


Visibility: N/A

Pressure: 30.07 "Hg

Humidity: 57%

Dew point: 57 °F

Location of BordeauxLocation

Historic Weather in Bordeaux — Graph

°F

Bordeaux temperature yesterday

Maximum temperature yesterday: 75 °F (at 4:00 PM)
Minimum temperature yesterday: 57 °F (at 5:00 AM)
Average temperature yesterday: 65 °F

Past Weeks' High & Low Weather Summary

 TemperatureHumidityPressure
High81 °F (Aug 25, 3:00 PM)100% (Aug 24, 8:30 AM)30.18 "Hg (Aug 24, 8:30 AM)
Low50 °F (Aug 21, 5:30 AM)37% (Aug 25, 5:00 PM)29.83 "Hg (Aug 26, 3:30 AM)
Average66 °F73%30.06 "Hg
* Reported Aug 17 7:00 PM — Sep 1 7:30 PM, Bordeaux, Weather by CustomWeather, © 2014

Note: Actual official high and low records may vary slightly from our data, if they occured in-between our weather recording intervals... More about our weather records

Advertising

Bordeaux weather history for previous 24 hours

 ConditionsComfort  
Time TempWeatherWind HumidityBarometerVisibility
7:30 PM
Sep 1
77 °FClear.10 mph51%30.07 "HgN/A
7:00 PM79 °FClear.10 mph45%30.07 "HgN/A
6:30 PM79 °FPassing clouds.9 mph48%30.07 "HgN/A
6:00 PM79 °FClear.9 mph48%30.09 "HgN/A
5:30 PM79 °FClear.7 mph48%30.09 "HgN/A
5:00 PM79 °FClear.7 mph48%30.09 "HgN/A
4:30 PM77 °FClear.5 mph51%30.09 "HgN/A
4:00 PM77 °FClear.6 mph51%30.12 "HgN/A
3:30 PM77 °FClear.6 mph47%30.12 "HgN/A
3:00 PM75 °FMild.2 mph50%30.12 "HgN/A
2:30 PM75 °FClear.5 mph50%30.12 "HgN/A
2:00 PM75 °FClear.7 mph50%30.15 "HgN/A
1:30 PM73 °FClear.6 mph53%30.15 "HgN/A
1:00 PM73 °FClear.7 mph53%30.15 "HgN/A
12:30 PM72 °FClear.7 mph53%30.15 "HgN/A
12:00 PM72 °FClear.7 mph61%30.15 "HgN/A
11:30 AM72 °FPassing clouds.7 mph57%30.15 "HgN/A
11:00 AM70 °FClear.7 mph60%30.15 "HgN/A
10:30 AM68 °FClear.6 mph64%30.15 "HgN/A
10:00 AM66 °FClear.6 mph73%30.15 "HgN/A
9:30 AM64 °FClear.5 mph78%30.15 "HgN/A
9:00 AM63 °FClear.5 mph83%30.15 "HgN/A
8:30 AM61 °FClear.5 mph88%30.15 "HgN/A
8:00 AM57 °FClear.3 mph94%30.15 "HgN/A
7:30 AM57 °FClear.3 mph94%30.15 "HgN/A
7:00 AM57 °FClear.5 mph94%30.15 "HgN/A
6:30 AM55 °FClear.3 mph94%30.12 "HgN/A
6:00 AM57 °FLight fog.No wind94%30.12 "HgN/A
5:30 AM57 °FClear.No wind100%30.15 "HgN/A
5:00 AM57 °FLight fog.1 mph94%30.15 "HgN/A
4:30 AM57 °FClear.2 mph94%30.15 "HgN/A
4:00 AM57 °FClear.2 mph94%30.15 "HgN/A
3:30 AM55 °FClear.1 mph94%30.15 "HgN/A
3:00 AM57 °FClear.1 mph88%30.15 "HgN/A
2:30 AM57 °FClear.2 mph94%30.15 "HgN/A
2:00 AM57 °FClear.2 mph94%30.15 "HgN/A
1:30 AM59 °FLight fog.No wind88%30.15 "HgN/A
1:00 AM59 °FClear.2 mph88%30.15 "HgN/A
12:30 AM59 °FClear.2 mph88%30.15 "HgN/A
12:00 AM59 °FClear.2 mph88%30.15 "HgN/A
11:30 PM
Aug 31
61 °FClear.2 mph83%30.15 "HgN/A
11:00 PM61 °FClear.3 mph83%30.15 "HgN/A
10:30 PM63 °FClear.6 mph83%30.15 "HgN/A
10:00 PM63 °FClear.6 mph83%30.15 "HgN/A
9:30 PM64 °FClear.8 mph78%30.15 "HgN/A
9:00 PM66 °FClear.6 mph73%30.12 "HgN/A
8:30 PM68 °FClear.7 mph69%30.12 "HgN/A
8:00 PM72 °FClear.9 mph61%30.12 "HgN/A
Weather by CustomWeather, © 2014

See weather overviewHow to use our weather pages